www.pogodaiklimat.ru

Погода и климат >> Архив погоды >> Аргентина >> San Juan


ПОГОДА в San Juan

  • Прогноз погоды в San Juan
  • Монитор погоды в San Juan
  • Климат города

АРХИВ ПОГОДЫ в San Juan

Время (UTC), дата Ветер
(напр.,м/с)
 
Видим.   Явления Облачность Т
(С)
Тd
(С)
f
(%)
Тe
(С)
Тes
(С)
Комфортность P
(гПа)
Po
(гПа)
Тmin
(С)
Tmax
(С)
R
(мм)
R24
(мм)
S
(см)
18 17.09 ЮВ 4 15 км 3/0
[Ac cuf Cs]
+26.7 +2.9 21 +25 +33 комфорт 1006.8 939.4
21 17.09 Ю 5 15 км 1/0
[Ci fib]
+27.2 +1.5 19 +25 +27 комфорт 1004.3 937.0
00 18.09 ЮЗ 3 15 км 3/0
[Cc]
+19.9 +3.9 35 +21 +21 комфорт 1005.4 937.3 +11.8 +28.3
03 18.09 З 2 15 км ясно +14.8 +6.2 56 +15 +15 1004.4 937.0
06 18.09 С 1 15 км ясно +12.9 +5.7 62 +13 +13 1002.0 935.0
09 18.09 С 6 15 км ясно +15.7 +5.6 51 +14 +14 1000.4 933.8
12 18.09 СВ 3 15 км ясно +17.0 +5.1 45 +17 +19 1003.1 935.8 +10.7 +19.9
15 18.09 ЮВ 3 15 км 1/1 1350 м
[Cu hum]
+23.5 -4.5 15 +24 +34 комфорт 1002.3 935.0
18 18.09 З 10 5000 м пыльный позёмок 1/1 1350 м
[Cu hum]
+31.2 -14.4 4 +27 +27 жарко 998.4 932.2
21 18.09 СЗ 13 5000 м пыльный позёмок 1/0
[Ac cuf]
+28.7 -15.5 5 +25 +25 комфорт 1000.4 934.1
00 19.09 Ю 3 15 км ясно +24.3 -10.2 9 +22 +22 комфорт 1003.7 936.8 +17.0 +32.1
03 19.09 Ю 8 15 км ясно +14.5 +1.4 41 +12 +12 1009.0 941.4
06 19.09 Ю 7 15 км ясно +11.1 +2.1 54 +8 +8 1008.8 941.7
09 19.09 Ю 1 15 км ясно +6.6 +1.8 71 +6 +6 1011.0 943.0
12 19.09 ЮВ 4 15 км 4/0
[Ci]
+12.7 +2.0 48 +11 +13 1012.9 944.9 +6.0 +24.3
15 19.09 Ю 5 15 км 3/0
[Cs]
+18.4 -0.7 27 +18 +26 1013.6 945.0
18 19.09 ЮВ 4 15 км 3/0
[Cs]
+21.6 -0.7 23 +21 +31 комфорт 1010.6 942.2
21 19.09 Ю 3 15 км 1/0
[Ac cast]
+22.6 +1.0 24 +22 +24 комфорт 1010.0 941.3
00 20.09 Ю 3 15 км ясно +16.4 +0.3 33 +16 +16 1012.5 943.7 +12.7 +24.5
03 20.09 Ю 2 15 км 1/0
[Cs]
+12.2 +1.3 47 +12 +12 1013.4 944.6
06 20.09 штиль 0 15 км ясно +10.2 +1.4 54 +10 +10 1012.6 944.1
09 20.09 З 2 15 км ясно +7.9 +1.5 64 +7 +7 1011.1 942.5
12 20.09 ЮВ 2 15 км 4/0
[Ci fib]
+11.7 +0.8 47 +11 +14 1012.7 943.7 +5.3 +16.4
15 20.09 В 2 15 км 3/0
[Ci fib]
+21.8 +2.6 28 +22 +36 комфорт 1010.9 942.6
18 20.09 Ю 2 15 км 3/0
[Ci fib]
+26.0 +3.9 24 +25 +39 комфорт 1007.3 939.6
21 20.09 ЮЗ 2 15 км 4/0
[Cs]
+27.0 +1.0 18 +25 +28 комфорт 1005.5 937.8
00 21.09 З 3 15 км 4/0
[Cs]
+21.7 +2.0 27 +21 +21 комфорт 1007.4 939.4 +11.7 +28.5
03 21.09 С 3 15 км 4/0
[Cs]
+15.2 +4.9 50 +15 +15 1008.3 940.6
06 21.09 С 3 15 км 4/0
[Cs]
+13.6 +2.7 48 +13 +13 1007.2 939.8
09 21.09 С 2 15 км 4/0
[Cs]
+11.4 +2.7 55 +11 +11 1007.1 939.7
12 21.09 Ю 1 15 км 8/0
[Ac lent Cs]
+12.2 +3.0 53 +12 +14 1009.6 941.4 +9.0 +21.7
15 21.09 СВ 2 10 км дым 8/0
[Cs]
+25.8 +5.4 27 +25 +38 комфорт 1007.8 940.6
18 21.09 СВ 2 15 км 5/0
[Cc]
+31.5 +2.9 16 +29 +42 жарко 1003.2 936.8
21 21.09 Ю 4 15 км 1/0
[Ci fib]
+32.6 -0.5 12 +29 +31 жарко 999.5 933.2
00 22.09 З 2 15 км ясно +22.9 +1.6 25 +22 +22 комфорт 1001.7 934.2 +12.2 +34.0
03 22.09 С 2 15 км ясно +16.6 -3.9 24 +17 +17 1002.3 935.3
06 22.09 СЗ 2 15 км 1/0
[Cs]
+14.6 +1.8 42 +14 +14 1000.3 934.2
09 22.09 С 5 15 км ясно +16.9 +2.4 38 +16 +16 999.3 933.6
12 22.09 С 5 15 км ясно +22.0 +4.7 32 +22 +24 комфорт 1001.5 935.2 +13.0 +23.0
15 22.09 С 6 15 км 1/0
[Ac lent]
+34.6 -0.3 11 +31 +37 жарко 999.3 933.8
18 22.09 СЗ 14 5000 м пыльный позёмок ясно +38.8 -5.1 6 996.6 931.4
21 22.09 З 8 15 км ясно +37.5 -5.7 6 +33 +34 жарко 996.1 931.0
00 23.09 З 7 15 км 3/0
[Cs]
+32.0 +1.8 15 +29 +29 жарко 999.3 934.1 +22.0 +39.5
03 23.09 СЗ 11 15 км 5/0
[Cs]
+32.2 +0.6 13 +29 +29 жарко 998.4 934.5
06 23.09 Ю 9 15 км 5/0
[Cs]
+23.2 +0.1 22 +21 +21 комфорт 1000.7 936.2
09 23.09 Ю 7 15 км 1/0
[Ci fib]
+17.2 +0.3 32 +16 +16 1004.1 938.6
12 23.09 ЮВ 5 15 км ясно +18.2 +1.4 32 +18 +19 1008.2 942.0 +14.5 +32.5
15 23.09 Ю 10 15 км ясно +22.9 +0.2 22 +22 +22 комфорт 1007.8 942.1
18 23.09 Ю 6 15 км ясно +26.4 +0.1 18 +25 +31 комфорт 1006.7 940.5
21 23.09 Ю 6 15 км ясно +26.8 -1.5 16 +25 +26 комфорт 1006.3 939.4
00 24.09 Ю 5 15 км ясно +20.6 -0.8 24 +21 +21 комфорт 1010.4 942.8 +18.2 +27.5
03 24.09 В 2 15 км ясно +16.3 +0.4 34 +17 +17 1013.4 945.6
06 24.09 Ю 5 15 км 3/0
[Cs]
+16.3 +0.1 33 +16 +16 1013.3 945.8
09 24.09 Ю 8 15 км ясно +13.8 -1.5 35 +12 +12 1015.0 947.3
12 24.09 Ю 7 15 км 1/0
[Ci]
+13.6 -2.2 33 +12 +12 1018.9 950.2 +11.5 +20.6

 

Местоположение метеостанции San Juan (Аргентина): широта -31.40 долгота -68.41 высота над уровнем моря 598 м.

В архиве по умолчанию представлена погода в San Juan за последнюю неделю. Архивные данные за месяц целиком и за предыдущие месяцы, начиная с января 2011 года, Вы можете получить, выбрав интересующий диапазон дат из раскрывающегося списка и нажав кнопку "Ввод!".


*Определитесь, кто Вы:
робот инопланетянин человек

Внимание! Время в таблицах - всемирное. Для получения местного времени необходимо прибавить поправку, которая в San Juan равна -3 ч.

Смотрите также архив погоды в соседних городах и на ближайших метеорологических станциях:

Погода в Mendoza (Аргентина) (163 км)
Погода в San Martin (Аргентина) (187 км)
Погода в Chamical (Аргентина) (234 км)
Погода в La Rioja (Аргентина) (272 км)
Погода в San Luis (Аргентина) (283 км)
Погода в Santiago (Чили) (310 км)
Погода в Pudahuel (Чили) (313 км)
Погода в La Serena (Чили) (314 км)
Погода в Villa Dolores (Аргентина) (316 км)
Погода в Coquimbo (Чили) (326 км)

Пояснения к столбцам:

Ветер - указаны скорость ветра в м/с - средняя за 10 мин, порывы в срок и между сроками (в фигурных скобках) и направление, откуда дует ветер: С - северный, СВ - северо-восточный, В - восточный, ЮВ - юго-восточный, Ю - южный, ЮЗ - юго-западный, З - западный, СЗ - северо-западный.
Видимость - горизонтальная дальность видимости в метрах или километрах. При видимости от 1 до 10 км при отсутствии осадков обычно наблюдается дымка, при ухудшении видимости до 1 км и менее - туман. В сухую погоду видимость может ухудшаться дымом, пылью или мглою.
Явления - указаны атмосферные явления, наблюдавшиеся в срок или в последний час перед сроком; фигурными скобками обозначены явления, наблюдавшиеся между сроками (за 1-3 часа до срока); квадратными скобками обозначены град или гололедные отложения с указанием их диаметра в мм.
Облачность - указаны через наклонную черту общая и нижняя облачность в баллах и высота нижней границы облаков в метрах; квадратными скобками обозначены формы облаков: Ci - перистые, Cs - перисто-слоистые, Cc - перисто-кучевые, Ac - высококучевые, As - высокослоистые, Sc - слоисто-кучевые, Ns - слоисто-дождевые, Cu - кучевые, Cb - кучево-дождевые. Подробнее классификацию облаков см. в Атласе облаков (PDF).
T - Температура воздуха - температура, измеренная на высоте 2 м над землей.
Td - Температура точки росы - температура, при понижении до которой содержащийся в воздухе водяной пар достигнет насыщения.
f - Относительная влажность воздуха - влажноcть воздуха, измеренная на высоте 2 м над землей.
Te - Эффективная температура - температура, которую ощущает одетый по сезону человек в тени. Характеристика душности погоды. При расчете учитывается влияние влажности воздуха и скорости ветра на теплоощущения человека.
Tes - Эффективная температура на солнце - температура, которую ощущает человек, с поправкой на солнечный нагрев. Характеристика знойности погоды. Зависит от высоты солнца над горизонтом, облачности и скорости ветра. Ночью, в пасмурную погоду, а также при ветре 12 м/с и более поправка равна нулю.
P - Атмосферное давление - приведенное к уровню моря атмосферное давление.
Po - Атмосферное давление - измеренное на уровне метеостанции атмосферное давление.
Tmin - Минимальная температура - минимум температуры воздуха на высоте 2 м над землей.
Tmax - Максимальная температура - максимум температуры воздуха на высоте 2 м над землей.
R - Количество осадков - Количество выпавших осадков за период времени, мм. При наведении курсора мыши на число - период времени, за который выпало указанное количество осадков.
R24 - Количество осадков - Количество выпавших осадков за 24 часа, мм.
S - Снежный покров - Высота снежного покрова, см. При наведении курсора мыши на число - состояние снежного покрова и степень покрытия местности в баллах.